Wokal Field Glasgow International Airport
KGGW : now visible

Airfield :











YOU CAN JOIN US ON...

 
LOGIN :

Register | Disclaimer

   EN    FR    IT 

 









Legend :    VFR   Marginal VFR   IFR   Intensive IFR   Very Intensive IFR
Visi :
Ceiling :
>= 8 km
>= 3000ft
5 to 8 km
1000 to 3000 ft
1500m to 5 km
500 to 1000 ft
800 to 1500m
200 to 500 ft
< 800m
< 200 ft
Symbols :   Thunderstorms  Fog  Heavy snow  Heavy precipitations  Wind > 20 kt






- Airport Elevation : 2296 ft
- IATA code : GGW


KGGW - Wokal Field Glasgow International

CURRENT METAR :
  • 070953Z AUTO 09017KT 10SM CLR 08/M09 A3003 RMK AO2 SLP173 T00781094 $

EXPIRED METARs :
  • 070853Z AUTO 10016KT 10SM CLR 08/M10 A3006 RMK AO2 SLP180 T00831100 58013 $
  • 070753Z AUTO 09015KT 10SM CLR 08/M09 A3007 RMK AO2 SLP187 T00831094

TAF KGGW
Valid from the 07 at 06:00 until the 08 at 06:00 UTC


070520Z 0706/0806 10013KT P6SM SCT090
FM070800 10015G26KT P6SM FEW150
FM071400 11018G30KT P6SM SCT180
FM071800 11023G35KT P6SM BKN150
FM080000 10020G29KT P6SM OVC100
KZLC FIR / North America



MET'MAP, your aeronautical weather chart ! - Copyright ORBIFLY December 2007 - Disclaimer

ORBIFLY MET'MAP TEAM :

Programming & Development : Alexandra Zaïnal
Concept & original design : Baudouin d'Aumeries
Assistance for programming : Marc-Olivier Méhu
Technical & hardware support : Manuel Goepfert

Contact : metmap@orbifly.com




SOURCES & CREDITS :

   NOAA       Earth
Advisory